Location: Blangy-Tronville
(49.8790°N, 2.4226°E)
Time: 02:42:30
(UTC+00:00)

Cosmos 1400 Rocket - Pass Details

Date: 18 November 2025
Orbit: 477 x 514 km, 81.1° (Epoch: 04 December)

Event Time Altitude Azimuth Distance (km) Brightness Sun altitude
Rises 17:03:49 0° 150° (SSE) 2,619 6.2 -9.8°
Reaches altitude 10° 17:06:31 10° 130° (SE) 1,733 5.1 -10.2°
Maximum altitude 17:09:00 17° 89° (E) 1,351 4.2 -10.6°
Enters shadow 17:09:57 16° 70° (ENE) 1,411 4.2 -10.7°
